• In Hungary
  • List of Countries
  • For 7 days
  • Water Temperature
  • Satellite Maps
  • Weather Map
  • News
  • Weather Widgets
  • user-avatar
    Login

    Hourly Weather Goryn

    Today, 19 September, Wednesday

    Time Temperature Precipitation Wind Pressure Humidity
    00:00 +18°C° 0 mm 3 mps 752 mmHg 76%
    01:00 +17°C° 0 mm 2 mps 752 mmHg 81%
    02:00 +17°C° 0 mm 3 mps 752 mmHg 83%
    03:00 +17°C° 0 mm 3 mps 752 mmHg 85%
    04:00 +17°C° 0 mm 3 mps 752 mmHg 87%
    05:00 +17°C° 0 mm 3 mps 752 mmHg 84%
    06:00 +18°C° 0 mm 3 mps 752 mmHg 82%
    07:00 +18°C° 0 mm 3 mps 752 mmHg 79%
    08:00 +20°C° 0 mm 3 mps 752 mmHg 72%
    09:00 +22°C° 0 mm 3 mps 753 mmHg 65%
    10:00 +25°C° 0 mm 3 mps 753 mmHg 58%
    11:00 +27°C° 0 mm 3 mps 753 mmHg 54%
    12:00 +28°C° 0 mm 3 mps 753 mmHg 50%
    13:00 +29°C° 0 mm 3 mps 753 mmHg 46%
    14:00 +29°C° 0 mm 3 mps 753 mmHg 47%
    15:00 +29°C° 0 mm 2 mps 753 mmHg 48%
    16:00 +28°C° 0 mm 2 mps 753 mmHg 49%
    17:00 +26°C° 0 mm 2 mps 753 mmHg 56%
    18:00 +24°C° 0 mm 2 mps 754 mmHg 62%
    19:00 +21°C° 0 mm 2 mps 754 mmHg 68%
    20:00 +21°C° 0 mm 1 mps 754 mmHg 70%
    21:00 +21°C° 0 mm 1 mps 754 mmHg 73%
    22:00 +20°C° 0 mm 1 mps 754 mmHg 75%
    23:00 +20°C° 0 mm 1 mps 754 mmHg 75%

    Tomorrow, 20 September, Thursday

    Time Temperature Precipitation Wind Pressure Humidity
    00:00 +20°C° 0 mm 1 mps 754 mmHg 74%
    01:00 +19°C° 0 mm 1 mps 754 mmHg 74%
    02:00 +19°C° 0 mm 1 mps 754 mmHg 73%
    03:00 +18°C° 0 mm 2 mps 754 mmHg 72%
    04:00 +18°C° 0 mm 2 mps 754 mmHg 71%
    05:00 +19°C° 0 mm 2 mps 754 mmHg 71%
    06:00 +19°C° 0 mm 3 mps 754 mmHg 70%
    07:00 +20°C° 0 mm 3 mps 754 mmHg 70%
    08:00 +22°C° 0 mm 3 mps 754 mmHg 65%
    09:00 +25°C° 0 mm 4 mps 754 mmHg 60%
    10:00 +27°C° 0 mm 4 mps 754 mmHg 56%
    11:00 +28°C° 0 mm 4 mps 754 mmHg 53%
    12:00 +29°C° 0 mm 4 mps 754 mmHg 50%
    13:00 +29°C° 0 mm 4 mps 754 mmHg 47%
    14:00 +29°C° 0 mm 4 mps 754 mmHg 48%
    15:00 +29°C° 0 mm 3 mps 754 mmHg 50%
    16:00 +28°C° 0 mm 3 mps 754 mmHg 52%
    17:00 +26°C° 0 mm 2 mps 754 mmHg 58%
    18:00 +24°C° 0 mm 2 mps 753 mmHg 64%
    19:00 +21°C° 0 mm 2 mps 753 mmHg 70%
    20:00 +22°C° 0 mm 1 mps 753 mmHg 73%
    21:00 +21°C° 0 mm 1 mps 753 mmHg 75%
    22:00 +20°C° 0 mm 1 mps 753 mmHg 78%
    23:00 +19°C° 0 mm 2 mps 753 mmHg 79%

    Day after tomorrow, 21 September, Friday

    Time Temperature Precipitation Wind Pressure Humidity
    00:00 +19°C° 0 mm 2 mps 753 mmHg 79%
    01:00 +19°C° 0 mm 2 mps 752 mmHg 80%
    02:00 +19°C° 0 mm 3 mps 752 mmHg 79%
    03:00 +19°C° 0 mm 3 mps 752 mmHg 79%
    04:00 +19°C° 0 mm 3 mps 752 mmHg 78%
    05:00 +19°C° 0 mm 4 mps 751 mmHg 74%
    06:00 +20°C° 0 mm 4 mps 751 mmHg 71%
    07:00 +20°C° 0 mm 5 mps 751 mmHg 67%
    08:00 +22°C° 0 mm 5 mps 751 mmHg 61%
    09:00 +24°C° 0 mm 6 mps 751 mmHg 55%
    10:00 +27°C° 0 mm 7 mps 750 mmHg 50%
    11:00 +28°C° 0 mm 7 mps 750 mmHg 47%
    12:00 +28°C° 0 mm 7 mps 749 mmHg 44%
    13:00 +29°C° 0 mm 8 mps 748 mmHg 41%
    14:00 +29°C° 0 mm 7 mps 748 mmHg 42%
    15:00 +29°C° 0 mm 7 mps 747 mmHg 43%
    16:00 +28°C° 0 mm 7 mps 746 mmHg 43%
    17:00 +27°C° 0 mm 6 mps 746 mmHg 45%
    18:00 +26°C° 0 mm 6 mps 746 mmHg 46%
    19:00 +24°C° 0 mm 6 mps 745 mmHg 47%
    20:00 +23°C° 0.1 mm 7 mps 746 mmHg 52%
    21:00 +22°C° 0.1 mm 7 mps 746 mmHg 57%
    22:00 +21°C° 0.1 mm 7 mps 747 mmHg 62%
    23:00 +17°C° 0.6 mm 6 mps 747 mmHg 66%

    22 September, Saturday

    Time Temperature Precipitation Wind Pressure Humidity
    00:00 +15°C° 0.6 mm 6 mps 748 mmHg 71%
    01:00 +12°C° 0.6 mm 5 mps 749 mmHg 76%
    02:00 +12°C° 0.4 mm 5 mps 750 mmHg 76%
    03:00 +12°C° 0.4 mm 5 mps 750 mmHg 77%
    04:00 +11°C° 0.4 mm 4 mps 751 mmHg 77%
    05:00 +12°C° 0 mm 5 mps 751 mmHg 75%
    06:00 +12°C° 0 mm 5 mps 751 mmHg 73%
    07:00 +12°C° 0 mm 5 mps 752 mmHg 71%
    08:00 +12°C° 0 mm 5 mps 752 mmHg 67%
    09:00 +13°C° 0 mm 6 mps 752 mmHg 63%
    10:00 +14°C° 0 mm 6 mps 753 mmHg 59%
    11:00 +14°C° 0 mm 6 mps 753 mmHg 55%
    12:00 +15°C° 0 mm 6 mps 753 mmHg 51%
    13:00 +16°C° 0 mm 6 mps 753 mmHg 47%
    14:00 +16°C° 0.1 mm 5 mps 753 mmHg 48%
    15:00 +16°C° 0.1 mm 5 mps 753 mmHg 49%
    16:00 +16°C° 0.1 mm 5 mps 752 mmHg 50%
    17:00 +15°C° 0.1 mm 4 mps 753 mmHg 55%
    18:00 +13°C° 0.1 mm 4 mps 753 mmHg 61%
    19:00 +12°C° 0.1 mm 4 mps 753 mmHg 66%
    20:00 +12°C° 0 mm 4 mps 753 mmHg 69%
    21:00 +11°C° 0 mm 4 mps 753 mmHg 71%
    22:00 +11°C° 0 mm 4 mps 753 mmHg 73%
    23:00 +10°C° 0 mm 4 mps 753 mmHg 75%

    23 September, Sunday

    Time Temperature Precipitation Wind Pressure Humidity
    00:00 +10°C° 0 mm 4 mps 753 mmHg 76%
    01:00 +10°C° 0 mm 4 mps 753 mmHg 77%
    02:00 +8°C° 0 mm 4 mps 753 mmHg 77%
    03:00 +8°C° 0 mm 4 mps 753 mmHg 77%
    04:00 +8°C° 0 mm 4 mps 754 mmHg 77%
    05:00 +8°C° 0 mm 5 mps 754 mmHg 76%
    06:00 +8°C° 0 mm 5 mps 754 mmHg 76%
    07:00 +8°C° 0 mm 6 mps 754 mmHg 75%
    08:00 +10°C° 0 mm 6 mps 754 mmHg 69%
    09:00 +11°C° 0 mm 6 mps 754 mmHg 63%
    10:00 +13°C° 0 mm 6 mps 754 mmHg 57%
    11:00 +14°C° 0 mm 6 mps 754 mmHg 53%
    12:00 +15°C° 0 mm 5 mps 753 mmHg 49%
    13:00 +16°C° 0 mm 5 mps 753 mmHg 44%
    14:00 +15°C° 0 mm 5 mps 752 mmHg 45%
    15:00 +15°C° 0 mm 4 mps 752 mmHg 45%
    16:00 +16°C° 0 mm 3 mps 751 mmHg 46%
    17:00 +14°C° 0 mm 3 mps 751 mmHg 48%
    18:00 +13°C° 0 mm 3 mps 750 mmHg 50%
    19:00 +12°C° 0 mm 3 mps 749 mmHg 52%
    20:00 +12°C° 0.5 mm 4 mps 748 mmHg 59%
    21:00 +11°C° 0.5 mm 4 mps 748 mmHg 66%
    22:00 +10°C° 0.5 mm 5 mps 747 mmHg 73%
    23:00 +9°C° 0.4 mm 6 mps 745 mmHg 76%

    24 September, Monday

    Time Temperature Precipitation Wind Pressure Humidity
    00:00 +9°C° 0.4 mm 8 mps 743 mmHg 80%
    01:00 +8°C° 0.4 mm 9 mps 741 mmHg 83%
    02:00 +8°C° 1.5 mm 9 mps 739 mmHg 85%
    03:00 +10°C° 1.5 mm 9 mps 738 mmHg 86%
    04:00 +10°C° 1.5 mm 9 mps 736 mmHg 87%
    05:00 +11°C° 1.3 mm 8 mps 735 mmHg 85%
    06:00 +11°C° 1.3 mm 7 mps 735 mmHg 84%
    07:00 +13°C° 1.3 mm 6 mps 734 mmHg 82%
    08:00 +12°C° 0.2 mm 7 mps 734 mmHg 80%
    09:00 +12°C° 0.2 mm 7 mps 733 mmHg 78%
    10:00 +12°C° 0.2 mm 7 mps 733 mmHg 75%
    11:00 +12°C° 0.2 mm 7 mps 733 mmHg 76%
    12:00 +13°C° 0.2 mm 6 mps 733 mmHg 77%
    13:00 +13°C° 0.2 mm 6 mps 732 mmHg 78%
    14:00 +13°C° 0.2 mm 6 mps 733 mmHg 78%
    15:00 +13°C° 0.2 mm 5 mps 733 mmHg 78%
    16:00 +13°C° 0.2 mm 5 mps 733 mmHg 78%
    17:00 +13°C° 0.5 mm 6 mps 734 mmHg 81%
    18:00 +11°C° 0.5 mm 7 mps 735 mmHg 84%
    19:00 +10°C° 0.5 mm 8 mps 736 mmHg 87%
    20:00 +9°C° 0.8 mm 10 mps 738 mmHg 84%
    21:00 +9°C° 0.8 mm 11 mps 739 mmHg 82%
    22:00 +9°C° 0.8 mm 12 mps 741 mmHg 79%
    23:00 +9°C° 0.4 mm 12 mps 742 mmHg 78%
    Show more